Terminal Aerodrome Forecast
Issued by NWS

Home | Current Version | Previous Version | Text Only | Print | Product List | Glossary On
Versions: 1 2 3 4 5 6 7 8 9 10 11 12 13 14 15 16 17 18 19 20 21 22 23
000
FTPQ31 PGUM 221100
TAFPQ
TAF

PKMJ 221121Z 2212/2312 07016KT P6SM VCSH SCT015 SCT050 BKN120
      TEMPO 2212/2216 3SM SHRA SCT014 BKN025=

USA.gov is the U.S. government's official web portal to all federal, state and local government web resources and services.